| time (UTC) | temp F | wind direction | speed MPH | gust MPH | rain 1hr in | rain 24hr in | rain mn in | humidity % | barometer mb |
| 20260507103518 | 55 | 0 | 0.0 | 0.0 | 0.00 | 0.02 | 0.00 | 86 | 1018.1 |
| 20260507103031 | 55 | 0 | 0.0 | 0.0 | 0.00 | 0.02 | 0.00 | 86 | 1018.1 |
| 20260507102513 | 55 | 0 | 0.0 | 0.0 | 0.00 | 0.02 | 0.00 | 86 | 1018.1 |
| 20260507102015 | 55 | 0 | 0.0 | 0.0 | 0.00 | 0.02 | 0.00 | 86 | 1017.9 |
| 20260507101532 | 55 | 0 | 0.0 | 0.0 | 0.00 | 0.02 | 0.00 | 86 | 1017.9 |
| 20260507101016 | 55 | 0 | 0.0 | 0.0 | 0.00 | 0.02 | 0.00 | 86 | 1017.8 |
| 20260507100513 | 55 | 0 | 0.0 | 0.0 | 0.00 | 0.02 | 0.00 | 85 | 1017.8 |
| 20260507100033 | 55 | 0 | 0.0 | 0.0 | 0.00 | 0.02 | 0.00 | 85 | 1017.7 |
| 20260507095514 | 55 | 0 | 0.0 | 0.0 | 0.00 | 0.02 | 0.00 | 85 | 1017.6 |
| 20260507095013 | 55 | 0 | 0.0 | 0.0 | 0.00 | 0.02 | 0.00 | 85 | 1017.6 |
| 20260507094535 | 56 | 0 | 0.0 | 0.0 | 0.00 | 0.02 | 0.00 | 85 | 1017.8 |
| 20260507094012 | 56 | 0 | 0.0 | 0.0 | 0.00 | 0.02 | 0.00 | 85 | 1017.5 |
| 20260507093517 | 56 | 0 | 0.0 | 0.0 | 0.00 | 0.02 | 0.00 | 85 | 1017.5 |
| 20260507093035 | 56 | 0 | 0.0 | 0.0 | 0.00 | 0.02 | 0.00 | 85 | 1017.6 |
| 20260507092517 | 56 | 0 | 0.0 | 0.0 | 0.00 | 0.02 | 0.00 | 85 | 1017.4 |
| 20260507092014 | 56 | 0 | 0.0 | 0.0 | 0.00 | 0.02 | 0.00 | 85 | 1017.5 |
| 20260507091536 | 56 | 0 | 0.0 | 0.0 | 0.00 | 0.02 | 0.00 | 85 | 1017.4 |
| 20260507091014 | 56 | 0 | 0.0 | 0.0 | 0.00 | 0.02 | 0.00 | 85 | 1017.3 |
| 20260507090516 | 56 | 0 | 0.0 | 0.0 | 0.00 | 0.02 | 0.00 | 85 | 1017.4 |
| 20260507090032 | 56 | 0 | 0.0 | 0.0 | 0.00 | 0.02 | 0.00 | 85 | 1017.3 |
| 20260507085514 | 56 | 0 | 0.0 | 0.0 | 0.00 | 0.02 | 0.00 | 85 | 1017.5 |
| 20260507085015 | 56 | 0 | 0.0 | 0.0 | 0.00 | 0.02 | 0.00 | 85 | 1017.3 |
| 20260507084540 | 56 | 0 | 0.0 | 0.0 | 0.00 | 0.02 | 0.00 | 84 | 1017.4 |
| 20260507084015 | 56 | 0 | 0.0 | 1.0 | 0.00 | 0.02 | 0.00 | 84 | 1017.3 |
| 20260507083514 | 56 | 0 | 0.0 | 1.0 | 0.00 | 0.02 | 0.00 | 84 | 1017.2 |
| 20260507083034 | 56 | 0 | 0.0 | 1.0 | 0.00 | 0.02 | 0.00 | 84 | 1017.2 |
| 20260507082513 | 56 | 0 | 0.0 | 1.0 | 0.00 | 0.02 | 0.00 | 84 | 1017.4 |
| 20260507082014 | 57 | 0 | 0.0 | 1.0 | 0.00 | 0.02 | 0.00 | 84 | 1017.4 |
| 20260507081540 | 57 | 0 | 0.0 | 1.0 | 0.00 | 0.02 | 0.00 | 83 | 1017.3 |
| 20260507081013 | 57 | 0 | 0.0 | 1.0 | 0.00 | 0.02 | 0.00 | 83 | 1017.3 |
| 20260507080515 | 57 | 0 | 0.0 | 0.0 | 0.00 | 0.02 | 0.00 | 83 | 1017.3 |
| 20260507080033 | 57 | 0 | 0.0 | 0.0 | 0.00 | 0.02 | 0.00 | 83 | 1017.2 |
| 20260507075512 | 57 | 0 | 0.0 | 0.0 | 0.00 | 0.02 | 0.00 | 83 | 1017.1 |
| 20260507075014 | 57 | 0 | 0.0 | 2.0 | 0.00 | 0.02 | 0.00 | 82 | 1016.9 |
| 20260507074532 | 57 | 0 | 0.0 | 2.0 | 0.00 | 0.02 | 0.00 | 82 | 1017.0 |
| 20260507074013 | 57 | 0 | 0.0 | 2.0 | 0.00 | 0.02 | 0.00 | 82 | 1016.9 |
| 20260507073516 | 57 | 0 | 0.0 | 2.0 | 0.00 | 0.02 | 0.00 | 82 | 1016.9 |
| 20260507073034 | 57 | 0 | 0.0 | 2.0 | 0.00 | 0.02 | 0.00 | 81 | 1016.8 |
| 20260507072515 | 57 | 0 | 0.0 | 1.0 | 0.00 | 0.02 | 0.00 | 81 | 1016.8 |
| 20260507072013 | 58 | 0 | 0.0 | 1.0 | 0.00 | 0.02 | 0.00 | 81 | 1017.0 |
| 20260507071530 | 58 | 0 | 0.0 | 1.0 | 0.00 | 0.02 | 0.00 | 81 | 1017.0 |
| 20260507071013 | 58 | 0 | 0.0 | 1.0 | 0.00 | 0.02 | 0.00 | 81 | 1017.0 |
| 20260507070515 | 58 | 0 | 0.0 | 1.0 | 0.00 | 0.02 | 0.00 | 81 | 1017.1 |
| 20260507070030 | 58 | 0 | 0.0 | 1.0 | 0.00 | 0.02 | 0.00 | 81 | 1017.2 |
| 20260507065513 | 58 | 0 | 0.0 | 1.0 | 0.00 | 0.02 | 0.00 | 81 | 1017.0 |
| 20260507065013 | 58 | 0 | 0.0 | 4.0 | 0.00 | 0.02 | 0.00 | 81 | 1016.9 |
| 20260507064534 | 58 | 0 | 0.0 | 4.0 | 0.00 | 0.02 | 0.00 | 81 | 1017.1 |
| 20260507064016 | 58 | 0 | 0.0 | 2.0 | 0.00 | 0.02 | 0.00 | 81 | 1017.0 |
| 20260507063517 | 58 | 0 | 0.0 | 1.0 | 0.00 | 0.02 | 0.00 | 81 | 1016.8 |
| 20260507063040 | 58 | 0 | 0.0 | 3.0 | 0.00 | 0.02 | 0.00 | 81 | 1016.6 |
| 20260507062514 | 58 | 0 | 0.0 | 3.0 | 0.00 | 0.02 | 0.00 | 81 | 1016.6 |
| 20260507062014 | 58 | 0 | 0.0 | 5.0 | 0.00 | 0.02 | 0.00 | 81 | 1016.7 |
| 20260507061532 | 58 | 0 | 0.0 | 5.0 | 0.00 | 0.02 | 0.00 | 81 | 1016.7 |
| 20260507061013 | 58 | 64 | 0.0 | 6.0 | 0.00 | 0.02 | 0.00 | 81 | 1016.7 |
| 20260507060513 | 58 | 0 | 0.0 | 6.0 | 0.00 | 0.02 | 0.00 | 81 | 1016.8 |
| 20260507060033 | 58 | 0 | 0.0 | 2.0 | 0.00 | 0.02 | 0.00 | 81 | 1016.7 |
| 20260507055513 | 59 | 0 | 0.0 | 3.0 | 0.00 | 0.02 | 0.00 | 81 | 1016.7 |
| 20260507055018 | 59 | 0 | 0.0 | 3.0 | 0.00 | 0.02 | 0.00 | 81 | 1016.6 |
| 20260507054531 | 59 | 0 | 0.0 | 4.0 | 0.00 | 0.02 | 0.00 | 81 | 1016.7 |
| 20260507054015 | 59 | 0 | 1.0 | 5.0 | 0.00 | 0.02 | 0.00 | 80 | 1016.6 |
| 20260507053514 | 59 | 75 | 0.0 | 5.0 | 0.00 | 0.02 | 0.00 | 80 | 1016.6 |
| 20260507053031 | 59 | 0 | 0.0 | 5.0 | 0.00 | 0.02 | 0.00 | 80 | 1016.6 |
| 20260507052514 | 59 | 71 | 1.0 | 8.0 | 0.00 | 0.02 | 0.00 | 80 | 1016.7 |
| 20260507052015 | 59 | 0 | 2.0 | 8.0 | 0.00 | 0.02 | 0.00 | 80 | 1016.7 |
| 20260507051533 | 59 | 0 | 0.0 | 4.0 | 0.00 | 0.02 | 0.00 | 80 | 1016.8 |
| 20260507051017 | 59 | 0 | 0.0 | 5.0 | 0.00 | 0.02 | 0.00 | 80 | 1016.8 |
| 20260507050514 | 59 | 0 | 0.0 | 5.0 | 0.00 | 0.02 | 0.00 | 80 | 1017.0 |
| 20260507050031 | 59 | 85 | 0.0 | 4.0 | 0.00 | 0.02 | 0.00 | 80 | 1016.8 |
| 20260507045517 | 59 | 0 | 1.0 | 4.0 | 0.00 | 0.02 | 0.02 | 80 | 1016.8 |
| 20260507045015 | 59 | 71 | 0.0 | 4.0 | 0.00 | 0.02 | 0.02 | 80 | 1016.9 |
| 20260507044532 | 60 | 0 | 0.0 | 3.0 | 0.00 | 0.02 | 0.02 | 81 | 1016.9 |
| 20260507044013 | 60 | 0 | 0.0 | 4.0 | 0.00 | 0.02 | 0.02 | 81 | 1016.8 |
| 20260507043514 | 60 | 0 | 0.0 | 6.0 | 0.00 | 0.02 | 0.02 | 81 | 1016.8 |
| 20260507043038 | 60 | 116 | 1.0 | 6.0 | 0.00 | 0.02 | 0.02 | 81 | 1016.8 |
| 20260507042516 | 60 | 62 | 1.0 | 5.0 | 0.00 | 0.02 | 0.02 | 80 | 1017.0 |
| 20260507042017 | 60 | 75 | 0.0 | 3.0 | 0.00 | 0.02 | 0.02 | 80 | 1017.1 |
| 20260507041530 | 60 | 0 | 0.0 | 4.0 | 0.00 | 0.02 | 0.02 | 80 | 1017.3 |
| 20260507041014 | 60 | 81 | 1.0 | 5.0 | 0.00 | 0.02 | 0.02 | 80 | 1017.4 |
| 20260507040513 | 60 | 75 | 2.0 | 5.0 | 0.00 | 0.02 | 0.02 | 80 | 1017.5 |
| 20260507040031 | 60 | 0 | 1.0 | 4.0 | 0.00 | 0.02 | 0.02 | 80 | 1017.3 |
| 20260507035513 | 60 | 0 | 1.0 | 4.0 | 0.00 | 0.02 | 0.02 | 80 | 1017.4 |
| 20260507035014 | 60 | 0 | 0.0 | 4.0 | 0.00 | 0.02 | 0.02 | 80 | 1017.3 |
| 20260507034536 | 60 | 0 | 0.0 | 4.0 | 0.00 | 0.02 | 0.02 | 80 | 1017.3 |
| 20260507034015 | 60 | 0 | 1.0 | 4.0 | 0.00 | 0.02 | 0.02 | 81 | 1017.3 |
| 20260507033513 | 60 | 0 | 0.0 | 5.0 | 0.00 | 0.02 | 0.02 | 80 | 1017.3 |
| 20260507033034 | 60 | 0 | 1.0 | 5.0 | 0.00 | 0.02 | 0.02 | 80 | 1017.1 |
| 20260507032516 | 60 | 67 | 0.0 | 2.0 | 0.00 | 0.02 | 0.02 | 80 | 1017.0 |
| 20260507032014 | 60 | 67 | 0.0 | 4.0 | 0.00 | 0.02 | 0.02 | 80 | 1017.1 |
| 20260507031533 | 60 | 67 | 0.0 | 6.0 | 0.00 | 0.02 | 0.02 | 80 | 1017.0 |
| 20260507031013 | 60 | 0 | 1.0 | 6.0 | 0.00 | 0.02 | 0.02 | 80 | 1017.0 |
| 20260507030517 | 60 | 0 | 0.0 | 3.0 | 0.00 | 0.02 | 0.02 | 80 | 1016.8 |
| 20260507030030 | 60 | 0 | 0.0 | 4.0 | 0.00 | 0.02 | 0.02 | 81 | 1016.8 |
| 20260507025512 | 60 | 0 | 1.0 | 4.0 | 0.00 | 0.02 | 0.02 | 81 | 1016.5 |
| 20260507025015 | 60 | 69 | 0.0 | 3.0 | 0.00 | 0.02 | 0.02 | 81 | 1016.5 |
| 20260507024532 | 60 | 0 | 0.0 | 2.0 | 0.00 | 0.02 | 0.02 | 81 | 1016.4 |
| 20260507024013 | 60 | 0 | 0.0 | 4.0 | 0.00 | 0.02 | 0.02 | 81 | 1016.4 |
| 20260507023513 | 60 | 0 | 0.0 | 4.0 | 0.00 | 0.02 | 0.02 | 81 | 1016.1 |
| 20260507023034 | 60 | 0 | 0.0 | 4.0 | 0.00 | 0.02 | 0.02 | 81 | 1016.2 |
| 20260507022513 | 60 | 0 | 0.0 | 4.0 | 0.00 | 0.02 | 0.02 | 81 | 1016.1 |
| 20260507022015 | 60 | 0 | 0.0 | 3.0 | 0.00 | 0.02 | 0.02 | 81 | 1016.0 |
| 20260507021537 | 60 | 0 | 0.0 | 3.0 | 0.00 | 0.02 | 0.02 | 81 | 1015.9 |
| 20260507021017 | 61 | 49 | 0.0 | 3.0 | 0.00 | 0.02 | 0.02 | 81 | 1015.8 |
| 20260507020513 | 61 | 0 | 0.0 | 3.0 | 0.00 | 0.02 | 0.02 | 81 | 1015.7 |
| 20260507020045 | 61 | 0 | 0.0 | 7.0 | 0.00 | 0.02 | 0.02 | 81 | 1015.7 |
| 20260507015515 | 61 | 0 | 1.0 | 7.0 | 0.00 | 0.02 | 0.02 | 81 | 1015.6 |
| 20260507015012 | 61 | 0 | 0.0 | 4.0 | 0.00 | 0.02 | 0.02 | 81 | 1015.4 |
| 20260507014534 | 61 | 0 | 0.0 | 3.0 | 0.00 | 0.02 | 0.02 | 81 | 1015.4 |
| 20260507014015 | 61 | 0 | 0.0 | 6.0 | 0.00 | 0.02 | 0.02 | 81 | 1015.2 |
| 20260507013512 | 61 | 0 | 0.0 | 6.0 | 0.00 | 0.02 | 0.02 | 80 | 1015.0 |
| 20260507013033 | 61 | 0 | 1.0 | 4.0 | 0.00 | 0.02 | 0.02 | 79 | 1014.9 |
| 20260507012512 | 61 | 0 | 0.0 | 4.0 | 0.00 | 0.02 | 0.02 | 79 | 1014.7 |
| 20260507012014 | 61 | 81 | 0.0 | 4.0 | 0.00 | 0.02 | 0.02 | 79 | 1014.6 |
| 20260507011543 | 61 | 0 | 1.0 | 4.0 | 0.00 | 0.02 | 0.02 | 79 | 1014.7 |
| 20260507011013 | 61 | 70 | 0.0 | 3.0 | 0.00 | 0.02 | 0.02 | 79 | 1014.5 |
| 20260507010513 | 61 | 0 | 0.0 | 3.0 | 0.00 | 0.02 | 0.02 | 79 | 1014.5 |
| 20260507010036 | 61 | 73 | 0.0 | 3.0 | 0.00 | 0.02 | 0.02 | 79 | 1014.4 |
| 20260507005516 | 61 | 0 | 0.0 | 4.0 | 0.00 | 0.02 | 0.02 | 79 | 1014.5 |
| 20260507005013 | 62 | 0 | 0.0 | 4.0 | 0.00 | 0.02 | 0.02 | 79 | 1014.4 |
| 20260507004533 | 62 | 82 | 0.0 | 2.0 | 0.00 | 0.02 | 0.02 | 79 | 1014.4 |
| 20260507004015 | 62 | 82 | 0.0 | 4.0 | 0.00 | 0.02 | 0.02 | 79 | 1014.4 |
| 20260507003515 | 62 | 0 | 1.0 | 4.0 | 0.00 | 0.02 | 0.02 | 79 | 1014.2 |
| 20260507003030 | 62 | 82 | 0.0 | 4.0 | 0.00 | 0.02 | 0.02 | 78 | 1014.0 |
| 20260507002513 | 62 | 0 | 1.0 | 4.0 | 0.00 | 0.02 | 0.02 | 78 | 1014.2 |
| 20260507002015 | 62 | 0 | 1.0 | 5.0 | 0.00 | 0.02 | 0.02 | 78 | 1014.1 |
| 20260507001602 | 62 | 0 | 0.0 | 5.0 | 0.00 | 0.02 | 0.02 | 78 | 1013.9 |
| 20260507001012 | 62 | 0 | 1.0 | 3.0 | 0.00 | 0.02 | 0.02 | 78 | 1013.8 |
| 20260507000514 | 62 | 83 | 0.0 | 5.0 | 0.00 | 0.02 | 0.02 | 78 | 1013.8 |
| 20260507000041 | 62 | 83 | 1.0 | 5.0 | 0.00 | 0.02 | 0.02 | 77 | 1013.7 |
| 20260506235515 | 62 | 91 | 1.0 | 3.0 | 0.00 | 0.02 | 0.02 | 78 | 1013.7 |
| 20260506235014 | 62 | 0 | 0.0 | 6.0 | 0.00 | 0.02 | 0.02 | 78 | 1013.7 |
| 20260506234531 | 62 | 92 | 1.0 | 6.0 | 0.00 | 0.02 | 0.02 | 78 | 1013.7 |
| 20260506234013 | 62 | 88 | 1.0 | 5.0 | 0.00 | 0.02 | 0.02 | 78 | 1013.7 |
| 20260506233515 | 63 | 0 | 0.0 | 3.0 | 0.00 | 0.02 | 0.02 | 78 | 1013.7 |
| 20260506233032 | 63 | 0 | 0.0 | 3.0 | 0.00 | 0.02 | 0.02 | 78 | 1013.7 |
| 20260506232515 | 63 | 111 | 0.0 | 3.0 | 0.00 | 0.02 | 0.02 | 77 | 1013.8 |
| 20260506232012 | 63 | 0 | 1.0 | 4.0 | 0.00 | 0.02 | 0.02 | 78 | 1013.5 |
| 20260506231534 | 63 | 112 | 0.0 | 4.0 | 0.00 | 0.02 | 0.02 | 78 | 1013.5 |
| 20260506231013 | 63 | 54 | 1.0 | 5.0 | 0.00 | 0.02 | 0.02 | 79 | 1013.4 |
| 20260506230517 | 63 | 54 | 1.0 | 5.0 | 0.00 | 0.02 | 0.02 | 80 | 1013.3 |
| 20260506230049 | 63 | 0 | 0.0 | 5.0 | 0.00 | 0.02 | 0.02 | 80 | 1013.2 |
| 20260506225513 | 63 | 31 | 0.0 | 4.0 | 0.00 | 0.02 | 0.02 | 80 | 1013.3 |
| 20260506225013 | 63 | 33 | 1.0 | 4.0 | 0.00 | 0.02 | 0.02 | 78 | 1013.5 |
| 20260506224530 | 63 | 0 | 1.0 | 8.0 | 0.00 | 0.02 | 0.02 | 77 | 1013.4 |
| 20260506224014 | 63 | 9 | 1.0 | 8.0 | 0.00 | 0.02 | 0.02 | 75 | 1013.4 |
| 20260506223512 | 63 | 20 | 2.0 | 6.0 | 0.00 | 0.02 | 0.02 | 73 | 1013.5 |
| 20260506223034 | 63 | 44 | 2.0 | 6.0 | 0.00 | 0.02 | 0.02 | 73 | 1013.3 |
| 20260506222516 | 63 | 331 | 1.0 | 4.0 | 0.00 | 0.02 | 0.02 | 73 | 1013.4 |
| 20260506222015 | 63 | 12 | 1.0 | 5.0 | 0.00 | 0.02 | 0.02 | 73 | 1013.2 |
| 20260506221533 | 63 | 0 | 1.0 | 5.0 | 0.00 | 0.02 | 0.02 | 72 | 1013.6 |
| 20260506221013 | 63 | 12 | 1.0 | 8.0 | 0.00 | 0.02 | 0.02 | 72 | 1013.3 |
| 20260506220513 | 63 | 6 | 1.0 | 8.0 | 0.00 | 0.02 | 0.02 | 72 | 1013.0 |
| 20260506220035 | 64 | 57 | 0.0 | 5.0 | 0.00 | 0.02 | 0.02 | 72 | 1012.9 |
| 20260506215513 | 64 | 39 | 2.0 | 5.0 | 0.00 | 0.02 | 0.02 | 72 | 1012.9 |
| 20260506215015 | 64 | 12 | 2.0 | 5.0 | 0.00 | 0.02 | 0.02 | 72 | 1013.0 |
| 20260506214533 | 64 | 343 | 0.0 | 4.0 | 0.00 | 0.02 | 0.02 | 72 | 1013.0 |
| 20260506214013 | 64 | 60 | 1.0 | 4.0 | 0.00 | 0.02 | 0.02 | 72 | 1012.8 |
| 20260506213519 | 64 | 358 | 1.0 | 9.0 | 0.00 | 0.02 | 0.02 | 72 | 1013.0 |
| 20260506213033 | 64 | 25 | 2.0 | 9.0 | 0.00 | 0.02 | 0.02 | 72 | 1013.0 |
| 20260506212515 | 64 | 349 | 3.0 | 8.0 | 0.00 | 0.02 | 0.02 | 72 | 1013.2 |
| 20260506212017 | 64 | 317 | 1.0 | 8.0 | 0.00 | 0.02 | 0.02 | 72 | 1013.2 |
| 20260506211530 | 64 | 20 | 1.0 | 8.0 | 0.00 | 0.02 | 0.02 | 72 | 1013.2 |
| 20260506211013 | 64 | 33 | 0.0 | 3.0 | 0.00 | 0.02 | 0.02 | 72 | 1013.1 |
| 20260506210517 | 64 | 0 | 0.0 | 9.0 | 0.00 | 0.02 | 0.02 | 73 | 1013.0 |
| 20260506210047 | 63 | 337 | 2.0 | 9.0 | 0.00 | 0.02 | 0.02 | 73 | 1013.2 |
| 20260506205514 | 63 | 58 | 1.0 | 4.0 | 0.00 | 0.02 | 0.02 | 73 | 1013.1 |
| 20260506205017 | 63 | 110 | 2.0 | 4.0 | 0.00 | 0.02 | 0.02 | 73 | 1013.4 |
| 20260506204533 | 63 | 351 | 1.0 | 5.0 | 0.00 | 0.02 | 0.02 | 72 | 1013.5 |
| 20260506204013 | 63 | 323 | 1.0 | 9.0 | 0.00 | 0.02 | 0.02 | 72 | 1013.4 |
| 20260506203515 | 63 | 326 | 3.0 | 9.0 | 0.00 | 0.02 | 0.02 | 71 | 1013.5 |
| 20260506203031 | 64 | 358 | 0.0 | 3.0 | 0.00 | 0.02 | 0.02 | 73 | 1013.4 |
| 20260506202515 | 63 | 358 | 1.0 | 6.0 | 0.00 | 0.02 | 0.02 | 73 | 1013.6 |
| 20260506202015 | 63 | 354 | 2.0 | 6.0 | 0.00 | 0.02 | 0.02 | 73 | 1013.7 |
| 20260506201533 | 62 | 12 | 2.0 | 6.0 | 0.00 | 0.02 | 0.02 | 75 | 1013.8 |
| 20260506201013 | 61 | 1 | 0.0 | 5.0 | 0.00 | 0.02 | 0.02 | 77 | 1013.8 |
| 20260506200514 | 61 | 12 | 2.0 | 7.0 | 0.00 | 0.02 | 0.02 | 77 | 1013.9 |
| 20260506200034 | 60 | 0 | 1.0 | 8.0 | 0.00 | 0.02 | 0.02 | 77 | 1013.7 |
| 20260506195515 | 60 | 349 | 4.0 | 9.0 | 0.00 | 0.02 | 0.02 | 76 | 1013.6 |
| 20260506195016 | 60 | 10 | 2.0 | 9.0 | 0.00 | 0.02 | 0.02 | 77 | 1014.0 |
| 20260506194532 | 60 | 348 | 2.0 | 8.0 | 0.00 | 0.02 | 0.02 | 78 | 1014.1 |
| 20260506194016 | 60 | 0 | 0.0 | 3.0 | 0.00 | 0.02 | 0.02 | 78 | 1014.3 |
| 20260506193514 | 60 | 350 | 0.0 | 5.0 | 0.00 | 0.02 | 0.02 | 78 | 1014.3 |
| 20260506193041 | 60 | 0 | 1.0 | 5.0 | 0.00 | 0.02 | 0.02 | 78 | 1014.4 |
| 20260506192514 | 60 | 342 | 0.0 | 5.0 | 0.00 | 0.02 | 0.02 | 78 | 1014.5 |
| 20260506192012 | 60 | 0 | 0.0 | 5.0 | 0.00 | 0.02 | 0.02 | 78 | 1014.5 |
| 20260506191534 | 60 | 0 | 1.0 | 5.0 | 0.00 | 0.02 | 0.02 | 77 | 1014.5 |
| 20260506191014 | 60 | 0 | 2.0 | 5.0 | 0.00 | 0.02 | 0.02 | 77 | 1014.4 |
| 20260506190513 | 60 | 0 | 1.0 | 4.0 | 0.00 | 0.02 | 0.02 | 77 | 1014.5 |
| 20260506190033 | 60 | 0 | 0.0 | 3.0 | 0.00 | 0.02 | 0.02 | 77 | 1014.7 |
| 20260506185515 | 60 | 0 | 0.0 | 3.0 | 0.00 | 0.02 | 0.02 | 77 | 1014.6 |
| 20260506185015 | 60 | 74 | 0.0 | 2.0 | 0.00 | 0.02 | 0.02 | 77 | 1014.5 |
| 20260506184538 | 60 | 0 | 0.0 | 4.0 | 0.00 | 0.02 | 0.02 | 78 | 1014.4 |
| 20260506184015 | 60 | 0 | 1.0 | 4.0 | 0.00 | 0.02 | 0.02 | 78 | 1014.3 |
| 20260506183517 | 60 | 0 | 1.0 | 4.0 | 0.00 | 0.02 | 0.02 | 79 | 1013.9 |
| 20260506183030 | 60 | 44 | 1.0 | 5.0 | 0.00 | 0.02 | 0.02 | 79 | 1013.2 |
| 20260506182514 | 60 | 62 | 1.0 | 6.0 | 0.00 | 0.02 | 0.02 | 80 | 1013.0 |
| 20260506182016 | 59 | 61 | 2.0 | 7.0 | 0.00 | 0.02 | 0.02 | 80 | 1012.9 |
| 20260506181539 | 59 | 74 | 2.0 | 8.0 | 0.00 | 0.02 | 0.02 | 80 | 1012.9 |
| 20260506181016 | 59 | 25 | 3.0 | 9.0 | 0.00 | 0.02 | 0.02 | 81 | 1012.9 |
| 20260506180514 | 59 | 64 | 3.0 | 9.0 | 0.00 | 0.02 | 0.02 | 82 | 1012.7 |
| 20260506180034 | 58 | 69 | 2.0 | 5.0 | 0.00 | 0.02 | 0.02 | 83 | 1012.9 |
| 20260506175516 | 58 | 95 | 1.0 | 5.0 | 0.00 | 0.02 | 0.02 | 84 | 1013.4 |
| 20260506175013 | 57 | 0 | 0.0 | 6.0 | 0.00 | 0.02 | 0.02 | 84 | 1013.5 |
| 20260506174537 | 57 | 60 | 3.0 | 6.0 | 0.00 | 0.02 | 0.02 | 84 | 1013.6 |
| 20260506174017 | 57 | 0 | 0.0 | 5.0 | 0.00 | 0.02 | 0.02 | 84 | 1013.7 |
| 20260506173516 | 57 | 12 | 1.0 | 5.0 | 0.00 | 0.02 | 0.02 | 84 | 1013.8 |
| 20260506173032 | 57 | 0 | 0.0 | 5.0 | 0.00 | 0.02 | 0.02 | 84 | 1013.8 |
| 20260506172513 | 57 | 357 | 1.0 | 6.0 | 0.00 | 0.02 | 0.02 | 85 | 1013.9 |
| 20260506172014 | 57 | 29 | 0.0 | 6.0 | 0.00 | 0.02 | 0.02 | 85 | 1014.0 |
| 20260506171535 | 57 | 0 | 1.0 | 8.0 | 0.00 | 0.02 | 0.02 | 85 | 1013.9 |
| 20260506171013 | 57 | 58 | 2.0 | 8.0 | 0.00 | 0.02 | 0.02 | 84 | 1013.9 |
| 20260506170514 | 57 | 0 | 2.0 | 12.0 | 0.00 | 0.02 | 0.02 | 84 | 1013.9 |
| 20260506170037 | 57 | 0 | 2.0 | 12.0 | 0.00 | 0.02 | 0.02 | 84 | 1014.0 |
| 20260506165515 | 57 | 12 | 1.0 | 8.0 | 0.00 | 0.02 | 0.02 | 84 | 1013.6 |
| 20260506165013 | 58 | 347 | 2.0 | 6.0 | 0.00 | 0.02 | 0.02 | 85 | 1014.0 |
| 20260506164546 | 58 | 56 | 1.0 | 6.0 | 0.01 | 0.02 | 0.02 | 85 | 1014.2 |
| 20260506164014 | 58 | 46 | 1.0 | 4.0 | 0.01 | 0.02 | 0.02 | 85 | 1014.2 |
| 20260506163513 | 58 | 48 | 1.0 | 5.0 | 0.02 | 0.02 | 0.02 | 86 | 1014.2 |
| 20260506163035 | 58 | 38 | 2.0 | 5.0 | 0.02 | 0.02 | 0.02 | 86 | 1014.4 |
| 20260506162514 | 58 | 346 | 0.0 | 6.0 | 0.02 | 0.02 | 0.02 | 86 | 1014.8 |
| 20260506162014 | 57 | 0 | 2.0 | 6.0 | 0.02 | 0.02 | 0.02 | 87 | 1014.7 |
| 20260506161534 | 57 | 0 | 0.0 | 4.0 | 0.02 | 0.02 | 0.02 | 88 | 1014.6 |
| 20260506161019 | 57 | 0 | 0.0 | 8.0 | 0.02 | 0.02 | 0.02 | 88 | 1014.5 |
| 20260506160513 | 57 | 84 | 1.0 | 8.0 | 0.02 | 0.02 | 0.02 | 88 | 1014.0 |
| 20260506160034 | 57 | 0 | 0.0 | 6.0 | 0.02 | 0.02 | 0.02 | 88 | 1014.2 |
| 20260506155515 | 57 | 0 | 1.0 | 8.0 | 0.02 | 0.02 | 0.02 | 88 | 1013.2 |
| 20260506155013 | 57 | 6 | 0.0 | 8.0 | 0.02 | 0.02 | 0.02 | 87 | 1013.7 |
| 20260506154533 | 56 | 0 | 0.0 | 6.0 | 0.01 | 0.01 | 0.01 | 86 | 1013.5 |
| 20260506154014 | 56 | 52 | 2.0 | 6.0 | 0.01 | 0.01 | 0.01 | 85 | 1013.2 |
| 20260506153514 | 56 | 0 | 0.0 | 5.0 | 0.00 | 0.00 | 0.00 | 83 | 1014.8 |
| 20260506153032 | 56 | 0 | 1.0 | 5.0 | 0.00 | 0.00 | 0.00 | 82 | 1015.7 |
| 20260506152515 | 56 | 0 | 0.0 | 3.0 | 0.00 | 0.00 | 0.00 | 81 | 1016.2 |
| 20260506152015 | 56 | 0 | 0.0 | 5.0 | 0.00 | 0.00 | 0.00 | 81 | 1015.6 |
| 20260506151537 | 56 | 356 | 0.0 | 5.0 | 0.00 | 0.00 | 0.00 | 81 | 1015.3 |
| 20260506151014 | 56 | 0 | 0.0 | 6.0 | 0.00 | 0.00 | 0.00 | 81 | 1015.1 |
| 20260506150513 | 56 | 4 | 0.0 | 6.0 | 0.00 | 0.00 | 0.00 | 81 | 1015.1 |
| 20260506150039 | 56 | 0 | 0.0 | 4.0 | 0.00 | 0.00 | 0.00 | 82 | 1014.9 |
| 20260506145516 | 56 | 0 | 0.0 | 8.0 | 0.00 | 0.00 | 0.00 | 82 | 1014.1 |
| 20260506145018 | 56 | 25 | 2.0 | 8.0 | 0.00 | 0.00 | 0.00 | 82 | 1013.5 |
| 20260506144533 | 56 | 338 | 1.0 | 10.0 | 0.00 | 0.00 | 0.00 | 82 | 1014.4 |
| 20260506144016 | 56 | 3 | 1.0 | 10.0 | 0.00 | 0.00 | 0.00 | 82 | 1014.4 |
| 20260506143517 | 56 | 0 | 1.0 | 4.0 | 0.00 | 0.00 | 0.00 | 82 | 1014.4 |
| 20260506143037 | 56 | 0 | 0.0 | 9.0 | 0.00 | 0.00 | 0.00 | 81 | 1014.5 |
| 20260506142515 | 56 | 0 | 1.0 | 9.0 | 0.00 | 0.00 | 0.00 | 80 | 1014.5 |
| 20260506142015 | 56 | 316 | 0.0 | 8.0 | 0.00 | 0.00 | 0.00 | 81 | 1014.2 |
| 20260506141540 | 56 | 0 | 0.0 | 7.0 | 0.00 | 0.00 | 0.00 | 81 | 1013.8 |
| 20260506141017 | 56 | 0 | 1.0 | 7.0 | 0.00 | 0.00 | 0.00 | 80 | 1014.0 |
| 20260506140515 | 56 | 353 | 1.0 | 6.0 | 0.00 | 0.00 | 0.00 | 80 | 1013.9 |
| 20260506140034 | 56 | 335 | 0.0 | 6.0 | 0.00 | 0.00 | 0.00 | 80 | 1013.6 |
| 20260506135510 | 56 | 20 | 1.0 | 9.0 | 0.00 | 0.00 | 0.00 | 80 | 1013.4 |
| 20260506135012 | 56 | 0 | 0.0 | 9.0 | 0.00 | 0.00 | 0.00 | 80 | 1013.4 |
| 20260506134530 | 56 | 25 | 0.0 | 8.0 | 0.00 | 0.00 | 0.00 | 80 | 1013.5 |
| 20260506134014 | 56 | 0 | 0.0 | 8.0 | 0.00 | 0.00 | 0.00 | 79 | 1013.5 |
| 20260506133514 | 56 | 2 | 1.0 | 6.0 | 0.00 | 0.00 | 0.00 | 79 | 1013.4 |
| 20260506133030 | 56 | 358 | 2.0 | 9.0 | 0.00 | 0.00 | 0.00 | 79 | 1013.4 |
| 20260506132511 | 56 | 0 | 3.0 | 9.0 | 0.00 | 0.00 | 0.00 | 79 | 1013.1 |
| 20260506132015 | 56 | 12 | 1.0 | 8.0 | 0.00 | 0.00 | 0.00 | 79 | 1012.9 |
| 20260506131529 | 56 | 20 | 1.0 | 8.0 | 0.00 | 0.00 | 0.00 | 78 | 1012.7 |
| 20260506131014 | 56 | 336 | 0.0 | 6.0 | 0.00 | 0.00 | 0.00 | 78 | 1012.7 |
| 20260506130514 | 56 | 45 | 2.0 | 6.0 | 0.00 | 0.00 | 0.00 | 78 | 1012.8 |
| 20260506130030 | 56 | 58 | 3.0 | 6.0 | 0.00 | 0.00 | 0.00 | 78 | 1012.8 |
| 20260506125514 | 56 | 70 | 2.0 | 7.0 | 0.00 | 0.00 | 0.00 | 78 | 1012.8 |
| 20260506125011 | 56 | 41 | 3.0 | 7.0 | 0.00 | 0.00 | 0.00 | 78 | 1012.7 |
| 20260506124534 | 56 | 54 | 2.0 | 7.0 | 0.00 | 0.00 | 0.00 | 78 | 1012.7 |
| 20260506124010 | 56 | 32 | 0.0 | 11.0 | 0.00 | 0.00 | 0.00 | 78 | 1012.6 |
| 20260506123511 | 56 | 0 | 2.0 | 11.0 | 0.00 | 0.00 | 0.00 | 78 | 1012.2 |
| 20260506123030 | 56 | 40 | 3.0 | 10.0 | 0.00 | 0.00 | 0.00 | 77 | 1012.5 |
| 20260506122513 | 56 | 37 | 1.0 | 9.0 | 0.00 | 0.00 | 0.00 | 78 | 1012.5 |
| 20260506122013 | 56 | 39 | 1.0 | 9.0 | 0.00 | 0.00 | 0.00 | 78 | 1012.4 |
| 20260506121530 | 56 | 0 | 1.0 | 13.0 | 0.00 | 0.00 | 0.00 | 78 | 1012.3 |
| 20260506121012 | 56 | 0 | 2.0 | 13.0 | 0.00 | 0.00 | 0.00 | 77 | 1012.2 |
| 20260506120515 | 57 | 50 | 3.0 | 13.0 | 0.00 | 0.00 | 0.00 | 76 | 1012.5 |
| 20260506120049 | 57 | 4 | 4.0 | 13.0 | 0.00 | 0.00 | 0.00 | 75 | 1012.5 |
| 20260506115514 | 57 | 337 | 3.0 | 9.0 | 0.00 | 0.00 | 0.00 | 75 | 1012.4 |
| 20260506115012 | 57 | 0 | 1.0 | 9.0 | 0.00 | 0.00 | 0.00 | 75 | 1012.0 |
| 20260506114534 | 57 | 324 | 2.0 | 9.0 | 0.00 | 0.00 | 0.00 | 74 | 1011.9 |
| 20260506114013 | 58 | 356 | 1.0 | 6.0 | 0.00 | 0.00 | 0.00 | 74 | 1011.8 |
| 20260506113511 | 58 | 48 | 1.0 | 5.0 | 0.00 | 0.00 | 0.00 | 74 | 1011.7 |
| 20260506113030 | 58 | 3 | 1.0 | 6.0 | 0.00 | 0.00 | 0.00 | 74 | 1011.4 |
| 20260506112510 | 58 | 35 | 2.0 | 9.0 | 0.00 | 0.00 | 0.00 | 74 | 1011.5 |
| 20260506112013 | 58 | 332 | 2.0 | 9.0 | 0.00 | 0.00 | 0.00 | 73 | 1011.5 |
| 20260506111531 | 58 | 0 | 1.0 | 11.0 | 0.00 | 0.00 | 0.00 | 73 | 1011.6 |
| 20260506111014 | 58 | 318 | 2.0 | 11.0 | 0.00 | 0.00 | 0.00 | 73 | 1011.4 |
| 20260506110510 | 59 | 10 | 1.0 | 5.0 | 0.00 | 0.00 | 0.00 | 73 | 1011.3 |
| 20260506110032 | 59 | 0 | 0.0 | 5.0 | 0.00 | 0.00 | 0.00 | 73 | 1011.3 |
| 20260506105531 | 59 | 0 | 0.0 | 5.0 | 0.00 | 0.00 | 0.00 | 72 | 1011.2 |
| 20260506105013 | 59 | 324 | 2.0 | 8.0 | 0.00 | 0.00 | 0.00 | 72 | 1011.1 |
| 20260506104539 | 59 | 0 | 0.0 | 8.0 | 0.00 | 0.00 | 0.00 | 72 | 1011.1 |
| 20260506104019 | 59 | 30 | 1.0 | 8.0 | 0.00 | 0.00 | 0.00 | 72 | 1011.0 |